CZ-6A DEB, 60805

Orbit data source: Space-Track

CZ-6A DEB, 60805 is space debris in LEO originally from a launch on Tue, 06 Aug 2024 UTC launched from the Taiyaun Space Center, China (TSC). Debris objects in space refer to the collection of defunct objects orbiting the Earth. Examples of debris include non-operational satellites, rocket bodies, and fragments generated from explosions, collisions, or faulty payload assembly.

Loading next visibility...
Identifier
60805, 2024-140GG
Orbit
LEO
Country
Flag of CNCN / PRC
Related business
Manufacturer
SAST
Mission
Spacecraft
Bus & Motor
Unknown
Mass
Unknown
Launch date (UTC)
2024-08-06 (2 years ago)
Launch vehicle
Unknown
Launch site
Taiyaun Space Center, China (TSC)
Object type
Payload
Rocket body
Debris
Shape & HBR
Unknown shape, 0.2 m
Radar Cross Section
Medium (>0.1 m² and <1 m²)

Expand to show TLE details & history
Last TLE update: 14 hours ago

TLE from 14 hours ago
0 CZ-6A DEB
1 60805U 24140GG  26171.33005260  .00000822  00000-0  45577-3 0  9999
2 60805  89.3025 299.4376 0104890 205.3127 154.2898 14.07633187 95269
Epoch: 2026-06-20T07:55Z
TLE epoch observation values (Epoch: 2026-06-20T07:55:16.544Z)
Latitude
0.00002°
Longitude
-87.92756°
Altitude
939.156 km
Speed
7.347 km/s
True Right ascension
19h 57m 45s
True Declination
0° 00' 00"
Sunlit
Object was in full shadow at epoch
Visualization orbit readout
Latitude
Unknown
Longitude
Unknown
Altitude
Unknown
Speed
Unknown
Apparent Right ascension
Unknown
Apparent Declination
Unknown
Sunlit
N/A
Visualization observer readout
Local Sidereal Time
08:41:59
Azimuth
Unknown
Elevation
Unknown
Doppler factor
Unknown
Orbital elements
Apogee altitude
940.417 km
Perigee altitude
788.482 km
Semi-major axis
7,242.586 km
Eccentricity
0.01049
Inclination
89.3025°
RAAN
299.4376°
Arg. of periapsis
205.3127°
True anomaly
154.80513°
Mean anomaly
154.2898°
Eccentric anomaly
154.54807°
Mean motion
3.5213 °/min
Orbital period
102.24 mins
BSTAR
0.00045577
Loading maneuver chart data...
Computing Atmospheric mass density...
Loading historical data...
Loading historical data...
Loading historical data...
Loading historical data...
Loading historical data...
Loading historical data...
Loading historical data...

Documentation

Showing up to 5 results
|